Temp
16 17 17 18 19 19 19 19 19 18 19 19 20 20 20 20 20 20 20 20 20 20 20 21 21 20 20 20 20 20 20 20 20 20 20 20 20 20 20 20 20 21
16 16 17 17 17 18 18 18 18 18 18 19 19 20 20 20 20 20 20 19 19 20 20 20 21 21 21 20 20 20 20 20 20 20 20 20 20 20 20 20 20 20
16 16 16 17 17 17 18 18 18 18 18 18 19 19 19 19 19 20 20 19 19 19 19 19 20 20 20 20 20 19 19 20 20 20 20 20 20 20 20 20 20 20
15 16 16 16 17 17 17 17 18 18 18 18 18 19 19 19 19 19 19 19 19 19 19 19 19 20 20 19 19 20 20 20 20 20 20 20 20 20 20 20 20 20
16 16 16 16 16 16 16 17 17 17 17 18 18 18 19 19 19 19 19 19 18 18 19 19 19 20 20 20 20 20 20 20 20 20 20 20 20 20 20 20 20 20
16 16 16 16 16 16 16 17 17 17 18 18 18 18 18 18 19 19 19 18 18 18 18 19 19 19 20 20 20 20 20 20 20 20 20 21 21 21 20 20 20 20
16 16 16 16 16 16 17 17 17 17 18 18 18 18 18 18 18 19 19 18 18 18 18 18 19 19 19 20 20 20 20 20 20 20 20 21 21 21 21 21 21 21
16 16 16 16 16 16 16 16 17 17 17 18 18 18 17 18 18 18 18 18 18 18 18 18 19 19 20 20 20 20 20 20 20 20 20 20 20 20 20 21 21 21
16 16 16 16 16 16 16 16 16 16 16 17 17 17 17 17 18 18 18 18 18 18 19 19 19 19 20 20 20 20 20 20 20 20 20 20 20 20 20 20 20 20
15 15 15 16 16 16 16 16 16 16 16 16 17 17 17 17 17 18 18 18 18 18 18 18 19 19 20 20 20 20 20 20 20 20 20 20 20 20 20 20 20 20
14 15 15 15 15 15 15 16 16 16 16 16 16 16 17 17 17 17 17 17 18 18 18 19 19 19 20 20 20 20 20 20 21 21 20 20 20 20 20 20 20 20
14 14 14 14 14 14 15 15 16 16 16 16 16 17 17 17 17 17 17 17 17 18 18 18 19 19 19 20 20 20 20 20 20 20 21 21 20 20 20 20 20 20
14 14 14 14 14 14 14 14 15 15 16 16 16 16 17 17 17 17 17 17 17 17 17 18 18 18 19 19 20 20 20 20 20 20 20 20 21 21 21 21 21 21
13 13 13 13 13 14 14 14 14 14 15 15 15 16 16 16 17 17 17 17 17 17 17 17 17 18 18 19 19 19 19 20 20 20 20 20 20 20 21 21 21 21
13 13 13 13 13 13 14 13 14 14 14 14 15 15 15 15 16 16 17 17 17 17 18 18 17 18 18 18 18 19 19 19 19 19 19 20 20 20 20 20 21 21
13 13 13 13 13 13 13 13 13 13 13 14 14 14 14 15 15 15 16 16 17 17 17 17 17 18 18 18 18 18 18 18 19 19 19 19 19 19 20 20 20 20
13 13 13 13 13 13 13 13 13 13 13 13 14 14 14 14 14 14 15 15 16 16 16 16 17 17 17 17 17 17 17 17 17 18 18 19 19 19 19 19 20 20
13 13 13 13 13 13 13 13 13 13 13 13 13 13 13 13 13 14 14 14 15 15 15 16 16 16 16 16 16 16 16 16 16 16 17 18 18 19 19 19 19 19
13 13 13 13 13 13 13 13 13 13 13 13 13 13 13 13 13 13 13 14 14 14 15 15 15 15 15 15 15 16 16 16 15 15 16 17 17 18 18 19 19 19
12 12 12 12 12 13 13 13 13 12 12 12 12 12 13 13 13 13 13 13 13 14 14 14 15 14 14 14 15 15 15 15 15 15 15 16 16 17 17 18 18 18
12 12 12 12 12 13 13 12 12 12 11 11 11 11 12 12 12 13 13 13 13 13 13 13 14 13 13 13 13 14 14 14 13 13 14 15 15 16 16 17 17 17
12 12 12 12 12 12 12 12 11 11 10 10 10 10 10 10 11 11 12 13 13 13 13 13 13 13 12 12 12 12 12 12 13 13 14 15 15 15 16 16 16 17
11 11 11 11 11 11 11 11 10 10 10 9 9 9 9 9 9 10 11 11 12 12 13 13 13 13 12 11 11 10 11 11 12 14 15 15 15 15 16 16 16 17
11 11 11 10 10 10 10 10 9 9 9 8 8 8 8 8 9 9 10 10 11 11 12 12 12 12 12 11 10 10 10 10 12 13 14 15 15 16 16 16 16 16
10 10 10 10 10 10 9 9 9 8 8 7 7 7 7 8 8 8 9 9 10 10 10 10 11 11 11 11 11 10 10 10 12 13 14 14 15 15 15 16 16 16
10 10 10 10 10 9 9 8 8 7 7 7 7 7 7 7 8 8 8 9 9 9 10 10 10 11 11 11 11 10 9 9 10 12 13 13 14 15 15 15 15 15
Height
810 810 811 813 814 815 815 816 817 817 818 819 820 822 825 826 827 828 829 830 830 831 831 833 834 835 836 836 835 836 839 840 842 843 843 843 843 843 844 844 844 844
809 810 811 812 813 814 815 815 816 817 818 818 819 820 821 823 824 825 827 828 829 829 829 829 830 832 833 834 834 834 834 835 837 840 840 840 840 841 841 841 841 842
809 810 811 811 812 813 814 815 815 816 817 818 818 819 819 820 821 822 824 825 827 827 827 827 828 829 830 831 832 832 832 832 833 835 836 836 837 838 838 839 839 839
809 810 810 810 811 811 812 813 814 815 816 816 817 817 817 819 819 820 821 822 824 825 826 826 826 827 828 829 829 830 830 830 830 832 832 833 833 834 835 836 836 836
809 809 809 809 810 810 811 812 813 814 815 815 816 816 816 817 818 818 819 820 821 823 824 824 824 825 825 826 827 827 828 828 828 829 829 830 830 831 831 832 833 833
808 808 809 809 809 810 811 811 812 813 813 814 814 815 815 815 816 817 818 819 819 821 822 822 822 823 823 824 824 825 825 826 826 826 827 827 828 828 828 829 829 829
810 809 809 809 809 809 810 810 811 811 812 813 813 813 813 814 815 815 816 817 818 818 819 820 820 821 821 821 822 822 823 823 823 824 824 825 825 825 825 825 825 825
811 810 809 809 808 809 809 809 810 810 811 811 811 812 812 812 813 814 815 816 816 817 817 818 818 818 819 819 819 819 820 820 821 821 822 822 822 823 822 822 822 822
811 810 810 809 809 809 809 809 810 810 810 810 810 810 811 811 811 812 813 814 814 815 815 816 816 816 817 816 817 817 817 818 818 818 819 820 820 820 820 820 819 819
811 811 811 810 810 810 810 810 810 810 810 809 809 809 809 809 810 810 811 812 813 813 813 814 814 814 815 815 815 815 815 815 815 815 816 817 817 817 817 817 817 817
813 813 812 812 812 812 811 811 811 810 810 809 809 809 808 808 809 809 810 810 811 811 811 812 812 813 813 813 813 813 813 813 813 812 812 813 813 814 814 814 815 815
814 814 814 813 813 812 812 812 811 811 810 810 809 809 808 808 808 809 809 809 809 809 810 810 810 811 811 811 811 811 811 811 810 810 810 809 810 810 810 811 811 811
815 815 814 813 813 812 812 812 811 811 810 810 809 808 808 808 808 809 809 808 809 808 808 809 809 809 810 810 810 809 809 808 808 808 808 807 807 807 807 807 807 808
816 815 814 813 813 812 812 811 811 811 810 810 809 808 808 808 808 808 808 808 808 807 807 807 807 807 808 808 808 808 807 806 806 805 805 805 805 804 804 804 804 804
816 815 814 814 813 812 812 811 811 811 810 810 809 809 808 808 808 808 808 808 807 806 806 806 805 806 806 806 806 806 805 805 804 803 803 802 802 801 801 801 801 801
816 815 814 813 813 812 811 811 810 810 810 809 809 809 808 808 808 808 807 807 806 806 805 804 804 804 804 804 804 804 803 803 802 801 801 800 799 799 798 798 798 798
815 815 814 813 812 812 811 810 810 809 809 809 808 808 808 807 807 806 806 806 805 804 804 803 802 802 801 801 801 801 801 801 801 800 799 798 797 797 796 796 796 795
815 814 814 813 812 811 811 810 809 809 808 808 807 807 806 806 805 805 804 804 803 803 802 801 800 800 799 799 799 799 799 799 799 798 797 796 795 795 794 793 793 793
816 815 814 813 812 811 810 809 809 808 807 807 806 806 805 804 804 803 802 802 801 801 800 799 798 797 797 797 797 797 797 797 797 796 795 795 794 793 793 792 791 791
816 815 814 813 812 811 810 809 808 807 807 806 805 805 804 803 802 801 801 800 799 799 797 796 796 795 794 794 794 794 794 794 793 793 792 792 791 791 791 790 790 789
816 815 814 813 812 810 810 809 808 807 806 805 804 803 802 802 801 799 799 798 797 797 796 794 793 793 792 791 791 791 791 790 790 790 789 789 788 788 788 788 788 787
815 814 813 812 811 810 809 808 808 807 806 804 803 802 801 800 799 798 797 796 795 795 794 792 791 790 789 789 789 789 788 788 788 787 787 786 785 785 785 785 785 784
815 814 813 812 810 809 808 808 807 806 805 804 802 801 800 799 798 797 795 794 794 793 792 791 790 789 788 787 787 786 786 786 786 785 785 783 783 782 782 781 781 780
815 814 812 811 810 809 808 807 806 805 804 803 802 800 799 798 797 795 794 793 792 791 790 789 788 787 787 786 785 785 785 785 785 784 783 782 781 780 779 778 777 776
815 814 812 811 810 808 807 806 805 804 803 802 801 800 798 797 796 795 793 792 791 789 789 788 787 785 785 784 784 784 784 784 784 783 781 780 779 778 776 775 774 773
815 814 812 811 810 808 807 806 805 803 802 801 800 799 797 796 795 794 792 791 789 788 787 786 785 784 783 783 783 783 783 783 783 782 781 779 778 776 774 773 771 770
Wind_Speed
16 16 15 15 17 18 17 16 17 18 20 21 21 20 19 18 17 16 17 18 19 21 22 22 22 21 21 20 20 20 20 21 22 22 20 19 19 20 20 20 20 19
11 13 14 15 16 16 16 16 16 17 18 19 20 20 20 21 21 20 19 18 18 19 22 25 25 24 23 22 22 22 22 21 22 22 20 20 20 20 20 20 20 20
7 11 13 13 13 13 13 14 16 17 17 17 19 20 19 19 21 22 22 21 20 18 20 23 24 24 24 23 21 21 20 20 20 20 19 20 20 20 20 20 20 20
6 9 11 11 12 12 12 12 14 15 15 16 18 18 18 17 17 20 22 23 22 19 19 21 22 22 21 20 20 19 19 19 19 18 18 19 19 18 19 19 19 20
5 7 8 9 9 9 9 10 12 13 14 15 15 16 16 16 16 18 19 20 20 19 19 20 20 20 19 19 19 18 18 18 17 17 18 19 19 18 18 18 18 19
3 5 6 7 8 7 8 10 11 13 15 15 15 15 15 15 17 18 18 18 17 17 18 19 19 19 19 18 18 17 17 16 17 18 19 20 19 18 18 18 18 19
1 2 4 6 7 7 8 9 10 12 13 14 14 14 14 15 17 18 18 18 18 18 19 19 19 19 18 17 17 17 16 16 16 18 19 19 19 19 19 19 20 20
5 3 1 2 3 4 5 6 7 8 10 12 13 14 14 14 15 16 17 18 18 19 19 19 20 20 19 18 18 17 17 17 17 18 19 19 19 19 20 20 20 21
7 6 5 3 1 0 2 3 5 7 8 9 12 13 13 13 14 16 17 16 17 18 18 18 20 21 20 19 19 17 17 17 17 18 19 19 19 20 20 20 20 21
7 7 7 6 4 3 2 1 3 6 7 8 9 10 11 12 14 15 16 16 17 18 18 19 20 21 20 19 19 18 17 18 17 18 18 18 19 20 20 20 20 20
7 6 6 6 5 5 4 3 2 2 4 5 6 8 9 10 11 13 15 16 18 18 18 18 19 20 20 19 19 18 18 18 17 18 18 19 19 20 20 21 21 21
7 7 7 6 6 6 6 5 4 3 2 2 3 5 6 8 9 11 12 14 15 16 16 17 17 18 18 18 19 18 18 18 17 17 18 19 19 20 20 21 22 21
7 7 7 7 7 7 7 6 6 5 4 3 3 3 3 5 7 8 10 11 12 13 14 15 16 16 16 17 17 17 17 17 17 18 18 18 18 19 19 20 21 21
7 7 7 7 8 8 7 7 7 7 7 6 5 4 4 4 4 6 7 9 10 11 12 13 14 16 16 16 16 16 17 17 18 18 18 18 18 18 18 19 20 21
7 7 7 7 8 8 8 8 8 8 8 7 7 6 6 6 6 6 7 8 9 10 10 11 12 14 14 15 15 15 15 16 17 17 18 19 19 18 19 19 19 19
7 7 7 7 8 8 8 8 9 8 9 9 8 8 8 8 8 8 9 9 9 9 10 10 11 11 13 16 16 16 16 15 15 16 17 17 18 19 19 20 20 20
8 7 7 7 7 8 8 8 9 9 9 9 9 9 9 9 9 10 11 11 11 11 11 10 10 11 13 16 17 17 17 16 15 15 16 16 17 18 19 19 19 20
8 8 8 8 7 8 8 9 9 9 9 10 10 10 10 10 11 11 12 12 12 13 14 13 13 13 15 17 17 16 17 17 16 15 15 16 16 17 18 18 18 19
9 9 8 8 8 8 9 10 10 10 10 11 11 12 12 13 13 13 13 13 14 14 15 15 14 15 18 21 20 19 19 19 17 16 15 16 16 17 17 17 18 18
10 9 8 8 9 9 10 10 11 11 11 12 12 13 13 14 15 15 15 16 15 15 15 15 15 16 18 22 23 22 21 21 20 19 18 18 18 18 19 19 19 19
11 10 9 9 9 10 10 11 11 12 12 13 13 13 14 14 15 15 16 16 16 16 16 16 15 15 18 21 22 22 22 21 20 19 18 19 19 20 21 21 21 21
11 11 10 10 10 10 11 11 11 12 12 13 13 14 14 14 15 15 15 16 16 16 17 17 16 15 17 19 19 19 18 17 17 17 17 18 19 19 20 21 21 21
11 12 12 12 12 12 12 12 13 13 13 13 13 14 14 15 15 15 15 15 16 16 16 17 16 14 14 16 16 15 13 12 13 14 15 16 17 17 18 19 20 21
11 11 12 12 13 13 13 14 14 13 13 12 13 14 14 15 15 15 15 15 15 15 15 16 16 15 15 15 15 13 12 11 12 13 13 14 15 16 17 18 19 21
10 10 11 12 13 13 13 14 13 12 12 11 12 12 13 13 13 14 14 14 14 15 15 16 16 15 14 13 12 12 11 10 11 13 13 14 15 16 16 17 18 20
9 9 11 12 13 13 13 13 13 12 11 11 11 11 12 12 12 13 14 14 14 14 14 14 14 14 12 11 11 12 12 10 11 12 14 15 17 18 18 19 19 20
Wind_Direction
226 225 226 226 227 230 227 223 223 219 217 218 219 223 228 229 228 226 224 225 224 222 223 225 226 229 233 233 233 235 241 248 252 252 249 244 241 238 236 235 234 236
231 231 230 229 231 234 232 228 226 222 223 225 225 225 229 234 237 239 238 235 233 229 228 230 230 231 234 236 237 237 238 242 245 246 247 246 243 241 239 237 236 237
231 231 230 230 232 234 234 237 237 233 232 235 236 234 233 237 240 243 246 244 240 235 232 232 231 232 234 235 238 238 237 237 236 237 241 243 244 244 242 240 240 240
234 231 234 235 237 238 237 239 241 240 239 243 246 245 242 242 241 242 247 251 247 240 235 232 229 230 232 232 234 236 237 236 236 236 238 241 241 242 244 244 244 243
240 234 235 237 238 240 240 241 243 244 245 248 251 252 250 249 247 245 247 251 249 242 239 236 231 229 229 229 231 234 238 238 236 236 238 240 239 237 240 242 243 245
244 238 236 236 235 236 238 242 245 247 250 252 252 253 253 252 252 250 248 247 244 239 238 239 237 234 230 229 232 233 235 237 235 234 236 238 237 235 236 236 237 239
23 238 233 234 231 231 236 241 244 247 250 251 252 252 252 251 250 250 249 247 243 239 237 237 236 233 228 228 232 233 232 233 232 232 233 234 236 235 235 235 234 236
37 29 330 250 231 231 239 244 246 249 250 248 247 248 247 245 244 246 247 246 245 243 240 238 236 233 232 231 231 230 231 231 230 230 232 232 235 237 237 238 236 236
36 36 33 34 42 351 271 260 255 252 249 246 244 244 243 242 240 241 242 241 242 243 241 241 241 240 238 235 233 231 230 230 229 230 232 233 235 238 241 244 244 242
31 36 36 36 42 45 42 319 271 260 254 250 246 245 243 241 239 238 239 238 238 240 241 243 245 246 243 239 238 237 233 232 229 228 230 232 235 239 241 245 248 247
17 24 26 27 29 29 32 32 358 302 282 267 257 254 250 247 243 240 240 240 239 239 241 241 242 244 244 242 241 240 238 236 233 230 229 229 231 236 240 242 244 246
4 6 6 7 9 8 8 7 5 -0 345 313 284 273 264 256 250 245 244 244 243 242 241 240 241 242 245 245 243 241 240 239 239 237 236 233 232 233 236 239 242 243
354 353 352 352 352 352 352 351 349 346 341 338 328 309 290 272 261 255 251 248 246 245 243 244 245 245 247 249 247 245 243 242 241 241 242 242 239 237 237 239 241 243
350 346 344 343 340 339 339 339 338 335 331 330 327 318 307 294 283 273 264 257 253 249 246 248 248 247 247 248 247 247 247 246 245 245 246 247 246 245 244 243 243 244
354 347 340 337 336 333 331 331 328 325 322 319 315 310 304 299 294 287 277 268 261 254 249 247 246 244 244 245 245 247 249 249 249 248 248 248 249 250 248 248 248 246
357 351 344 339 337 333 329 327 322 320 316 312 307 302 299 297 292 288 283 276 269 263 256 250 246 243 242 242 242 244 249 255 258 256 254 253 251 251 251 251 250 249
357 353 347 342 337 332 329 325 320 317 312 307 305 302 298 295 288 283 280 277 274 271 266 260 254 249 245 242 241 243 249 256 262 265 264 260 257 255 255 255 253 253
354 351 348 343 337 333 329 325 319 314 309 304 302 301 297 292 288 282 278 275 272 271 269 265 261 257 254 252 252 253 255 257 260 266 268 266 264 262 261 260 259 258
351 350 348 344 340 335 330 325 319 313 309 304 300 298 293 287 284 281 279 277 273 270 267 265 263 263 263 265 266 265 264 262 260 262 265 266 266 267 267 267 265 265
349 347 346 343 339 336 331 324 319 314 308 303 298 295 290 286 283 280 277 276 274 272 270 267 265 263 264 267 269 269 269 266 262 260 260 261 262 263 264 265 266 267
348 344 343 339 335 334 332 324 318 314 309 306 302 296 292 289 286 282 277 275 275 275 275 274 270 267 267 269 271 272 273 271 268 264 261 260 260 259 260 262 262 264
345 342 340 337 333 332 331 326 322 316 311 308 305 300 297 294 290 287 282 278 277 276 275 276 275 275 275 277 280 279 277 274 271 266 261 260 259 259 259 260 261 262
342 341 339 337 336 333 331 329 325 319 315 312 308 304 300 297 294 290 285 282 280 277 275 276 278 280 281 284 288 289 286 281 274 269 265 263 263 262 262 261 261 260
340 341 340 339 338 335 332 329 326 322 319 316 311 306 301 298 297 293 288 284 281 278 277 278 278 279 282 287 290 294 296 289 281 278 274 271 270 268 266 266 264 262
340 341 342 340 337 335 331 328 326 323 321 317 313 308 304 302 299 296 293 290 285 283 282 281 279 279 283 289 292 297 300 292 283 282 282 280 279 277 274 272 270 267
342 343 345 342 340 339 335 331 329 325 321 319 314 309 307 305 303 300 297 294 291 289 286 282 281 282 283 288 294 298 299 294 287 286 287 287 287 285 283 279 275 272